sat.trackr.live / text

‹ back to catalog

STARLINK-30312

NORAD 57641 · 2023-122K

PAYLOAD ACTIVE UNKNOWN

§ Identity

Operator
Country
US
Launch date
2023-08-17
Launch site
AFETR
Launch vehicle
Mass (kg)
RCS (m²)

Purposes: comms

External: N2YO · Heavens-Above · Gunter

§ Orbital elements

Epoch: 2026-05-25T00:11:14.745984Z

Period
94.27 min
Inclination
43.0026°
Eccentricity
0.0001278
Mean motion
15.27578041 rev/d
Perigee alt
482.2 km
Apogee alt
483.9 km
Semi-major
6,861.2 km
B*
8.0930e-5
RAAN
21.0846°
Arg perigee
270.4355°
Mean anomaly
89.6350°
Rev number
15,388

§ Raw data

STARLINK-303121 57641U 23122K   26145.00780956  .00001965  00000+0  80930-4 0  99902 57641  43.0026  21.0846 0001278 270.4355  89.6350 15.27578041153881

JSON: /api/v1/satellites/57641 · /tle

For live sub-satellite position, see the globe view (requires WebGL).

§ Visibility from observer

Set your observer location to see the next 7 days of passes ≥ 10°. The values pass through the URL so the page stays shareable.

No JS? Fill the form by hand. The geolocation button needs JavaScript.